TimeMDT,TemperatureF,Dew PointF,Humidity,Sea Level PressureIn,VisibilityMPH,Wind Direction,Wind SpeedMPH,Gust SpeedMPH,PrecipitationIn,Events,Conditions,WindDirDegrees,DateUTC
12:53 AM,36.0,12.9,39,29.96,10.0,NNE,9.2,-,N/A,,Clear,30,2013-03-28 06:53:00
1:53 AM,32.0,12.9,45,29.98,10.0,North,8.1,-,N/A,,Clear,10,2013-03-28 07:53:00
2:53 AM,37.0,17.1,44,29.96,10.0,North,4.6,-,N/A,,Clear,10,2013-03-28 08:53:00
3:53 AM,33.1,12.9,43,29.97,10.0,North,4.6,-,N/A,,Clear,360,2013-03-28 09:53:00
4:53 AM,30.0,10.9,45,29.98,10.0,NNE,4.6,-,N/A,,Clear,30,2013-03-28 10:53:00
5:53 AM,28.9,10.9,47,29.99,10.0,Calm,Calm,-,N/A,,Clear,0,2013-03-28 11:53:00
6:53 AM,30.9,12.9,47,30.01,10.0,NE,6.9,-,N/A,,Clear,50,2013-03-28 12:53:00
7:53 AM,36.0,14.0,41,30.03,10.0,Calm,Calm,-,N/A,,Clear,0,2013-03-28 13:53:00
8:53 AM,46.0,17.1,31,30.01,10.0,South,5.8,-,N/A,,Clear,190,2013-03-28 14:53:00
9:53 AM,52.0,15.1,23,29.99,10.0,South,6.9,-,N/A,,Clear,180,2013-03-28 15:53:00
10:53 AM,57.9,12.9,17,29.97,10.0,Variable,5.8,-,N/A,,Clear,0,2013-03-28 16:53:00
11:53 AM,62.1,10.0,13,29.95,10.0,Variable,5.8,-,N/A,,Clear,0,2013-03-28 17:53:00
12:53 PM,66.0,6.1,9,29.93,10.0,WSW,20.7,32.2,N/A,,Clear,240,2013-03-28 18:53:00
1:53 PM,66.0,6.1,9,29.94,10.0,WSW,19.6,31.1,N/A,,Clear,240,2013-03-28 19:53:00
2:53 PM,64.0,7.0,11,29.90,10.0,WSW,17.3,28.8,N/A,,Clear,240,2013-03-28 20:53:00
3:12 PM,66.2,6.8,10,30.09,10.0,WSW,28.8,35.7,N/A,,Clear,240,2013-03-28 21:12:00
3:53 PM,64.0,5.0,10,29.91,10.0,WSW,26.5,36.8,N/A,,Clear,240,2013-03-28 21:53:00
4:53 PM,64.0,8.1,11,29.93,10.0,West,23.0,32.2,N/A,,Clear,260,2013-03-28 22:53:00
5:53 PM,62.1,8.1,12,29.95,10.0,WSW,19.6,31.1,N/A,,Clear,250,2013-03-28 23:53:00
6:53 PM,60.1,8.1,13,29.97,10.0,West,15.0,25.3,N/A,,Clear,280,2013-03-29 00:53:00
7:53 PM,52.0,8.1,17,30.00,10.0,WSW,10.4,-,N/A,,Clear,240,2013-03-29 01:53:00
8:53 PM,50.0,9.0,19,29.99,10.0,WSW,9.2,-,N/A,,Clear,250,2013-03-29 02:53:00
9:53 PM,48.9,10.0,21,29.98,10.0,WSW,9.2,-,N/A,,Clear,240,2013-03-29 03:53:00
10:53 PM,45.0,10.0,24,29.98,10.0,SSW,5.8,-,N/A,,Clear,210,2013-03-29 04:53:00
11:53 PM,48.0,12.9,24,29.96,10.0,West,5.8,-,N/A,,Clear,260,2013-03-29 05:53:00